When you browse on this site, cookies collect data to enhance your experience and personalize the content and advertising you see.
Visit our Privacy Policy to learn more. By continuing to use the site, you agree to this use of cookies and data.
  • Em Portugal
  • Lista de países
  • Para 7 dias
  • Temperatura da água
  • Mapa do tempo
  • Widgets de tempo
  • user-avatar
    Iniciar Sessão

    Previsão horária em Andryjanki

    Hoje, 5 Junho, Sexta-feira

    Tempo Temperatura Precipitação Vento Pressão Humidade
    00:00 +9°C° 0 mm 2 m/s 736 mmHg 85%
    01:00 +8°C° 0 mm 2 m/s 736 mmHg 87%
    02:00 +8°C° 0 mm 3 m/s 736 mmHg 89%
    03:00 +8°C° 0 mm 3 m/s 736 mmHg 90%
    04:00 +8°C° 0 mm 3 m/s 735 mmHg 91%
    05:00 +8°C° 0 mm 3 m/s 735 mmHg 92%
    06:00 +10°C° 0 mm 4 m/s 735 mmHg 87%
    07:00 +12°C° 0 mm 5 m/s 735 mmHg 83%
    08:00 +14°C° 0 mm 6 m/s 735 mmHg 76%
    09:00 +16°C° 0 mm 6 m/s 735 mmHg 76%
    10:00 +17°C° 0 mm 6 m/s 735 mmHg 76%
    11:00 +20°C° 0 mm 7 m/s 734 mmHg 75%
    12:00 +21°C° 0.3 mm 7 m/s 734 mmHg 75%
    13:00 +21°C° 0.3 mm 7 m/s 734 mmHg 74%
    14:00 +22°C° 0.3 mm 7 m/s 734 mmHg 74%
    15:00 +22°C° 0.6 mm 7 m/s 734 mmHg 75%
    16:00 +22°C° 0.6 mm 7 m/s 734 mmHg 76%
    17:00 +22°C° 0.6 mm 6 m/s 734 mmHg 78%
    18:00 +20°C° 0.4 mm 5 m/s 735 mmHg 82%
    19:00 +19°C° 0.4 mm 4 m/s 735 mmHg 86%
    20:00 +17°C° 0.4 mm 3 m/s 735 mmHg 91%
    21:00 +17°C° 1.6 mm 3 m/s 736 mmHg 93%
    22:00 +16°C° 1.6 mm 2 m/s 736 mmHg 96%
    23:00 +15°C° 1.6 mm 2 m/s 736 mmHg 98%

    Amanhã, 6 Junho, Sábado

    Tempo Temperatura Precipitação Vento Pressão Humidade
    00:00 +15°C° 0.6 mm 2 m/s 736 mmHg 97%
    01:00 +14°C° 0.6 mm 3 m/s 737 mmHg 96%
    02:00 +14°C° 0.6 mm 3 m/s 737 mmHg 96%
    03:00 +13°C° 0 mm 4 m/s 737 mmHg 96%
    04:00 +13°C° 0 mm 4 m/s 737 mmHg 96%
    05:00 +12°C° 0 mm 4 m/s 738 mmHg 96%
    06:00 +13°C° 0 mm 5 m/s 738 mmHg 92%
    07:00 +14°C° 0 mm 6 m/s 739 mmHg 87%
    08:00 +15°C° 0 mm 6 m/s 740 mmHg 82%
    09:00 +16°C° 0 mm 6 m/s 740 mmHg 77%
    10:00 +17°C° 0 mm 7 m/s 741 mmHg 71%
    11:00 +18°C° 0 mm 7 m/s 742 mmHg 66%
    12:00 +20°C° 0 mm 6 m/s 742 mmHg 64%
    13:00 +20°C° 0 mm 6 m/s 742 mmHg 62%
    14:00 +21°C° 0 mm 6 m/s 743 mmHg 61%
    15:00 +21°C° 0 mm 5 m/s 743 mmHg 61%
    16:00 +22°C° 0 mm 5 m/s 743 mmHg 62%
    17:00 +22°C° 0 mm 4 m/s 743 mmHg 62%
    18:00 +21°C° 0 mm 4 m/s 743 mmHg 69%
    19:00 +20°C° 0 mm 3 m/s 743 mmHg 75%
    20:00 +18°C° 0 mm 3 m/s 743 mmHg 82%
    21:00 +18°C° 0 mm 3 m/s 743 mmHg 84%
    22:00 +17°C° 0 mm 3 m/s 744 mmHg 87%
    23:00 +16°C° 0 mm 3 m/s 744 mmHg 89%

    Depois de amanhã, 7 Junho, Domingo

    Tempo Temperatura Precipitação Vento Pressão Humidade
    00:00 +14°C° 0 mm 3 m/s 744 mmHg 90%
    01:00 +14°C° 0 mm 3 m/s 744 mmHg 90%
    02:00 +14°C° 0 mm 3 m/s 744 mmHg 91%
    03:00 +14°C° 0.1 mm 3 m/s 744 mmHg 91%
    04:00 +14°C° 0.1 mm 4 m/s 744 mmHg 90%
    05:00 +14°C° 0.1 mm 4 m/s 744 mmHg 89%
    06:00 +16°C° 0.3 mm 5 m/s 743 mmHg 89%
    07:00 +17°C° 0.3 mm 6 m/s 743 mmHg 88%
    08:00 +19°C° 0.3 mm 6 m/s 743 mmHg 88%
    09:00 +20°C° 0.2 mm 6 m/s 743 mmHg 86%
    10:00 +21°C° 0.2 mm 6 m/s 743 mmHg 83%
    11:00 +22°C° 0.2 mm 6 m/s 743 mmHg 81%
    12:00 +24°C° 0 mm 6 m/s 743 mmHg 76%
    13:00 +26°C° 0 mm 6 m/s 743 mmHg 70%
    14:00 +27°C° 0 mm 7 m/s 742 mmHg 64%
    15:00 +27°C° 0.1 mm 6 m/s 742 mmHg 67%
    16:00 +27°C° 0.1 mm 6 m/s 742 mmHg 69%
    17:00 +27°C° 0.1 mm 5 m/s 742 mmHg 72%
    18:00 +26°C° 1.5 mm 5 m/s 742 mmHg 76%
    19:00 +23°C° 1.5 mm 4 m/s 742 mmHg 81%
    20:00 +22°C° 1.5 mm 3 m/s 742 mmHg 85%
    21:00 +21°C° 0.5 mm 3 m/s 742 mmHg 87%
    22:00 +20°C° 0.5 mm 3 m/s 743 mmHg 89%
    23:00 +19°C° 0.5 mm 3 m/s 743 mmHg 91%

    8 Junho, Segunda-feira

    Tempo Temperatura Precipitação Vento Pressão Humidade
    00:00 +19°C° 0 mm 3 m/s 743 mmHg 92%
    01:00 +18°C° 0 mm 3 m/s 743 mmHg 93%
    02:00 +18°C° 0 mm 3 m/s 743 mmHg 94%
    03:00 +18°C° 0 mm 3 m/s 743 mmHg 95%
    04:00 +18°C° 0 mm 3 m/s 743 mmHg 96%
    05:00 +17°C° 0 mm 3 m/s 743 mmHg 96%
    06:00 +18°C° 0 mm 3 m/s 743 mmHg 94%
    07:00 +19°C° 0 mm 4 m/s 743 mmHg 91%
    08:00 +20°C° 0 mm 4 m/s 743 mmHg 88%
    09:00 +22°C° 0 mm 4 m/s 743 mmHg 83%
    10:00 +23°C° 0 mm 5 m/s 744 mmHg 78%
    11:00 +26°C° 0 mm 5 m/s 744 mmHg 73%
    12:00 +26°C° 1.1 mm 5 m/s 744 mmHg 73%
    13:00 +26°C° 1.1 mm 4 m/s 743 mmHg 73%
    14:00 +26°C° 1.1 mm 4 m/s 743 mmHg 73%
    15:00 +26°C° 0.2 mm 4 m/s 743 mmHg 72%
    16:00 +27°C° 0.2 mm 4 m/s 743 mmHg 72%
    17:00 +27°C° 0.2 mm 4 m/s 743 mmHg 71%
    18:00 +26°C° 0.1 mm 3 m/s 743 mmHg 75%
    19:00 +24°C° 0.1 mm 3 m/s 743 mmHg 80%
    20:00 +22°C° 0.1 mm 3 m/s 743 mmHg 84%
    21:00 +21°C° 0.4 mm 3 m/s 743 mmHg 87%
    22:00 +20°C° 0.4 mm 3 m/s 743 mmHg 89%
    23:00 +19°C° 0.4 mm 2 m/s 743 mmHg 91%

    9 Junho, Terça-feira

    Tempo Temperatura Precipitação Vento Pressão Humidade
    00:00 +18°C° 0.4 mm 3 m/s 743 mmHg 92%
    01:00 +18°C° 0.4 mm 3 m/s 743 mmHg 94%
    02:00 +18°C° 0.4 mm 3 m/s 743 mmHg 95%
    03:00 +18°C° 0.2 mm 3 m/s 743 mmHg 95%
    04:00 +18°C° 0.2 mm 3 m/s 743 mmHg 96%
    05:00 +18°C° 0.2 mm 2 m/s 743 mmHg 96%
    06:00 +19°C° 0 mm 2 m/s 744 mmHg 93%
    07:00 +20°C° 0 mm 3 m/s 744 mmHg 90%
    08:00 +21°C° 0 mm 3 m/s 744 mmHg 88%
    09:00 +24°C° 0.1 mm 3 m/s 745 mmHg 81%
    10:00 +25°C° 0.1 mm 2 m/s 745 mmHg 74%
    11:00 +26°C° 0.1 mm 2 m/s 745 mmHg 67%
    12:00 +27°C° 0.6 mm 2 m/s 745 mmHg 67%
    13:00 +27°C° 0.6 mm 2 m/s 745 mmHg 66%
    14:00 +27°C° 0.6 mm 2 m/s 745 mmHg 66%
    15:00 +27°C° 1.7 mm 2 m/s 745 mmHg 70%
    16:00 +26°C° 1.7 mm 2 m/s 745 mmHg 74%
    17:00 +25°C° 1.7 mm 1 m/s 745 mmHg 78%
    18:00 +24°C° 0.5 mm 1 m/s 745 mmHg 80%
    19:00 +23°C° 0.5 mm 2 m/s 745 mmHg 83%
    20:00 +23°C° 0.5 mm 2 m/s 745 mmHg 86%
    21:00 +21°C° 0.9 mm 2 m/s 746 mmHg 88%
    22:00 +20°C° 0.9 mm 2 m/s 746 mmHg 91%
    23:00 +19°C° 0.9 mm 2 m/s 746 mmHg 93%

    10 Junho, Quarta-feira

    Tempo Temperatura Precipitação Vento Pressão Humidade
    00:00 +19°C° 0.9 mm 2 m/s 746 mmHg 94%
    01:00 +19°C° 0.9 mm 2 m/s 746 mmHg 94%
    02:00 +18°C° 0.9 mm 2 m/s 745 mmHg 94%
    03:00 +18°C° 0.2 mm 2 m/s 745 mmHg 94%
    04:00 +18°C° 0.2 mm 2 m/s 745 mmHg 94%
    05:00 +18°C° 0.2 mm 2 m/s 745 mmHg 94%
    06:00 +18°C° 0.3 mm 2 m/s 745 mmHg 94%
    07:00 +19°C° 0.3 mm 3 m/s 746 mmHg 93%
    08:00 +20°C° 0.3 mm 3 m/s 746 mmHg 92%
    09:00 +22°C° 0.9 mm 3 m/s 746 mmHg 87%
    10:00 +24°C° 0.9 mm 2 m/s 746 mmHg 82%
    11:00 +26°C° 0.9 mm 2 m/s 746 mmHg 76%
    12:00 +26°C° 1.4 mm 2 m/s 745 mmHg 74%
    13:00 +27°C° 1.4 mm 2 m/s 745 mmHg 72%
    14:00 +27°C° 1.4 mm 3 m/s 745 mmHg 70%
    15:00 +27°C° 0.7 mm 3 m/s 745 mmHg 71%
    16:00 +27°C° 0.7 mm 2 m/s 745 mmHg 73%
    17:00 +27°C° 0.7 mm 2 m/s 745 mmHg 74%
    18:00 +26°C° 0.9 mm 2 m/s 745 mmHg 78%
    19:00 +25°C° 0.9 mm 2 m/s 745 mmHg 82%
    20:00 +24°C° 0.9 mm 2 m/s 744 mmHg 86%
    21:00 +23°C° 0.9 mm 2 m/s 745 mmHg 86%
    22:00 +21°C° 0.9 mm 2 m/s 745 mmHg 87%
    23:00 +20°C° 0.9 mm 2 m/s 745 mmHg 88%
    Mostrar mais